EW6604 Weather Reports


Display with metric or nautical units.
time (UTC)temp
F
wind
direction
speed
MPH
gust
MPH
rain 1hr
in
rain 24hr
in
rain mn
in
humidity
%
barometer
mb
20260906002212 78 194 0.0 0.0 0.00 0.51 0.39 94 1011.8
20260906001735 78 194 0.0 0.0 0.00 0.51 0.39 94 1011.8
20260906001218 78 206 0.0 0.0 0.00 0.51 0.39 93 1011.7
20260906000727 79 206 0.0 1.0 0.00 0.51 0.39 93 1011.7
20260906000249 79 209 0.0 1.0 0.00 0.51 0.39 93 1011.8
20260905235731 79 203 0.0 1.0 0.00 0.52 0.39 93 1011.8
20260905235214 79 189 0.0 3.0 0.00 0.52 0.39 93 1011.8
20260905234718 79 189 1.0 3.0 0.00 0.52 0.39 92 1011.9
20260905234222 79 196 0.0 3.0 0.00 0.52 0.39 92 1011.9
20260905233723 80 197 0.0 1.0 0.00 0.52 0.39 92 1012.0
20260905233226 80 167 0.0 0.0 0.00 0.52 0.39 93 1012.1
20260905232746 79 167 0.0 0.0 0.00 0.52 0.39 93 1012.2
20260905232229 79 168 0.0 2.0 0.00 0.52 0.39 93 1012.2
20260905231717 79 111 1.0 3.0 0.00 0.52 0.39 92 1012.0
20260905231228 79 78 1.0 3.0 0.00 0.52 0.39 92 1012.1
20260905230729 79 93 2.0 3.0 0.00 0.52 0.39 92 1012.1
20260905230252 79 195 0.0 0.0 0.00 0.52 0.39 93 1012.0
20260905225714 79 195 0.0 2.0 0.00 1.02 0.39 92 1011.9
20260905225217 79 195 1.0 2.0 0.00 1.02 0.39 92 1011.9
20260905224720 79 195 1.0 2.0 0.00 1.02 0.39 92 1012.0
20260905224224 80 145 1.0 3.0 0.00 1.02 0.39 92 1011.9
20260905223728 80 115 2.0 3.0 0.00 1.02 0.39 92 1011.9
20260905223212 79 118 1.0 2.0 0.00 1.02 0.39 92 1011.9
20260905204714 80 77 3.0 3.0 0.00 1.56 0.39 92 1013.0
20260905204218 80 111 1.0 3.0 0.00 1.56 0.39 92 1013.0
20260905203721 80 228 0.0 4.0 0.00 1.56 0.39 92 1012.8
20260905203229 80 79 3.0 4.0 0.00 1.56 0.39 92 1012.6
20260905202731 80 83 1.0 3.0 0.00 1.56 0.39 92 1012.7
20260905202215 80 93 1.0 2.0 0.00 1.56 0.39 92 1012.6
20260905201719 80 201 0.0 2.0 0.00 1.56 0.39 92 1012.7
20260905201243 79 113 0.0 1.0 0.00 1.56 0.39 93 1012.7
20260905200713 79 158 1.0 3.0 0.00 1.56 0.39 92 1012.8
20260905200215 79 194 1.0 3.0 0.00 1.56 0.39 92 1012.7
20260905195717 79 130 1.0 2.0 0.00 1.56 0.39 92 1012.8
20260905195241 79 122 0.0 2.0 0.00 1.56 0.39 92 1013.0
20260905194724 79 96 1.0 2.0 0.00 1.56 0.39 92 1013.3
20260905193719 79 203 0.0 1.0 0.00 1.56 0.39 93 1013.4
20260905193225 79 156 1.0 1.0 0.00 1.56 0.39 93 1013.1
20260905192727 79 155 1.0 1.0 0.00 1.56 0.39 92 1012.9
20260905192231 79 136 0.0 2.0 0.00 1.56 0.39 92 1012.7
20260905191719 78 139 2.0 2.0 0.01 1.56 0.39 93 1012.6
20260905191223 78 218 1.0 1.0 0.03 1.56 0.39 93 1012.6
20260905190727 78 218 0.0 1.0 0.14 1.56 0.39 93 1012.6
20260905190232 78 199 0.0 1.0 0.23 1.56 0.39 93 1012.5
20260905185713 77 199 0.0 2.0 0.29 1.56 0.39 93 1012.6
20260905185217 78 150 1.0 2.0 0.29 1.56 0.39 93 1012.7
20260905184721 78 108 1.0 3.0 0.29 1.56 0.39 92 1012.9
20260905184225 78 116 1.0 3.0 0.29 1.56 0.39 92 1013.1
20260905183728 78 147 0.0 1.0 0.29 1.56 0.39 92 1013.3
20260905183212 78 227 1.0 3.0 0.29 1.56 0.39 91 1013.4
20260905182716 78 242 1.0 7.0 0.29 1.56 0.39 91 1013.3
20260905182224 78 292 4.0 11.0 0.29 1.56 0.39 90 1013.4
20260905181728 78 293 8.0 17.0 0.27 1.54 0.37 89 1013.5
20260905181212 79 293 10.0 19.0 0.25 1.51 0.34 90 1013.6
20260905180727 80 283 12.0 19.0 0.15 1.41 0.24 90 1013.6
20260905180232 80 265 11.0 19.0 0.07 1.33 0.16 90 1013.5
20260905175715 82 272 11.0 24.0 0.01 1.27 0.10 88 1013.3
20260905175238 84 306 9.0 15.0 0.01 1.27 0.10 85 1013.3
20260905174721 84 331 3.0 6.0 0.01 1.27 0.10 86 1013.1
20260905174225 84 356 5.0 9.0 0.05 1.27 0.10 85 1013.0
20260905173729 84 345 4.0 10.0 0.08 1.27 0.10 86 1013.1
20260905173213 84 8 6.0 8.0 0.08 1.27 0.10 85 1013.0
20260905172717 84 6 3.0 6.0 0.08 1.27 0.10 85 1013.1
20260905172224 83 342 4.0 7.0 0.08 1.27 0.10 86 1013.1
20260905171727 84 4 4.0 10.0 0.08 1.27 0.10 86 1013.1
20260905171252 84 339 7.0 10.0 0.07 1.26 0.09 85 1013.4
20260905170716 83 314 6.0 8.0 0.07 1.26 0.09 86 1013.4
20260905170219 83 24 3.0 6.0 0.07 1.26 0.09 86 1013.5
20260905165742 83 351 3.0 9.0 0.07 1.26 0.09 86 1013.6
20260905165226 83 18 6.0 10.0 0.07 1.26 0.09 86 1013.7
20260905164731 84 18 7.0 16.0 0.07 1.26 0.09 85 1013.8
20260905164216 85 34 12.0 16.0 0.02 1.21 0.04 82 1013.8
20260905163719 86 19 11.0 13.0 0.00 1.19 0.02 81 1013.8
20260905163223 87 294 4.0 6.0 0.00 1.19 0.02 77 1013.9
20260905162726 87 274 3.0 10.0 0.00 1.19 0.02 76 1014.0
20260905162214 87 269 6.0 10.0 0.00 1.19 0.02 76 1014.0
20260905161718 88 275 4.0 7.0 0.00 1.19 0.02 78 1014.1
20260905161222 87 307 3.0 6.0 0.00 1.19 0.02 77 1014.1
20260905160713 87 279 3.0 8.0 0.00 1.19 0.02 78 1014.2
20260905155225 86 299 3.0 6.0 0.00 1.19 0.02 80 1014.3
20260905154749 86 283 5.0 8.0 0.00 1.19 0.02 79 1014.4
20260905154232 86 284 6.0 9.0 0.00 1.19 0.02 80 1014.5
20260905153718 86 277 5.0 9.0 0.00 1.19 0.02 81 1014.5
20260905153221 86 267 2.0 9.0 0.00 1.19 0.02 81 1014.6
20260905152726 86 294 4.0 9.0 0.00 1.19 0.02 81 1014.6
20260905152231 85 295 4.0 7.0 0.00 1.19 0.02 82 1014.6
20260905151715 85 269 5.0 9.0 0.00 1.19 0.02 84 1014.7
20260905151219 85 286 5.0 9.0 0.00 1.19 0.02 84 1014.7
20260905150724 85 281 6.0 8.0 0.00 1.19 0.02 84 1014.8
20260905150232 85 277 6.0 9.0 0.00 1.19 0.02 84 1014.8
20260905145717 85 282 5.0 11.0 0.00 1.19 0.02 85 1014.8
20260905145221 85 273 6.0 11.0 0.00 1.19 0.02 85 1014.9
20260905144726 85 276 3.0 6.0 0.00 1.19 0.02 87 1014.8
20260905144231 84 295 3.0 8.0 0.00 1.19 0.02 87 1014.8
20260905143714 84 288 6.0 8.0 0.00 1.19 0.02 86 1014.9
20260905143217 84 274 5.0 8.0 0.00 1.19 0.02 87 1014.9
20260905142721 84 281 5.0 7.0 0.00 1.19 0.02 87 1014.8
20260905142225 84 272 2.0 6.0 0.01 1.19 0.02 88 1014.9
20260905141728 83 292 4.0 6.0 0.01 1.19 0.02 88 1014.9
20260905141217 83 290 3.0 7.0 0.01 1.19 0.02 89 1014.9
20260905140730 83 283 2.0 7.0 0.01 1.19 0.02 90 1014.9
20260905140213 83 269 3.0 6.0 0.01 1.19 0.02 90 1014.8
20260905135717 82 291 4.0 6.0 0.01 1.19 0.02 90 1014.8
20260905135221 82 276 3.0 6.0 0.01 1.19 0.02 91 1014.7
20260905134724 82 284 4.0 7.0 0.01 1.19 0.02 91 1014.6
20260905134229 81 272 4.0 7.0 0.01 1.19 0.02 92 1014.6
20260905133713 81 258 2.0 4.0 0.01 1.19 0.02 92 1014.6
20260905133217 81 282 1.0 6.0 0.01 1.19 0.02 92 1014.6
20260905132721 81 274 3.0 8.0 0.01 1.19 0.02 93 1014.6
20260905132225 81 286 3.0 5.0 0.00 1.18 0.01 93 1014.6
20260905131713 81 258 1.0 3.0 0.00 1.18 0.01 94 1014.6
20260905131217 81 157 0.0 0.0 0.00 1.18 0.01 94 1014.6
20260905130721 81 157 0.0 0.0 0.00 1.18 0.01 95 1014.6
20260905130226 80 156 0.0 0.0 0.00 1.18 0.01 95 1014.4
20260905125730 80 157 0.0 0.0 0.00 1.18 0.01 95 1014.6
20260905125214 79 157 0.0 0.0 0.00 1.18 0.01 95 1014.6
20260905124716 79 158 0.0 0.0 0.00 1.18 0.01 95 1014.7
20260905124240 79 158 0.0 0.0 0.00 1.18 0.01 95 1014.6
20260905123721 79 157 0.0 0.0 0.00 1.18 0.01 95 1014.6
20260905123225 78 156 0.0 0.0 0.00 1.18 0.01 95 1014.5
20260905122726 78 156 0.0 0.0 0.00 1.18 0.01 95 1014.5
20260905122231 78 159 0.0 0.0 0.00 1.18 0.01 95 1014.4
20260905121718 78 159 0.0 0.0 0.00 1.18 0.01 95 1014.4
20260905121238 77 159 0.0 0.0 0.00 1.18 0.01 95 1014.3
20260905120745 77 159 0.0 0.0 0.00 1.18 0.01 95 1014.3
20260905120231 77 159 0.0 0.0 0.00 1.18 0.01 95 1014.2
20260905115715 77 159 0.0 0.0 0.00 1.18 0.01 95 1014.1
20260905115219 77 159 0.0 0.0 0.00 1.18 0.01 95 1014.1
20260905114723 77 160 0.0 0.0 0.00 1.18 0.01 95 1014.0
20260905114227 77 160 0.0 0.0 0.00 1.18 0.01 95 1013.9
20260905113732 77 160 0.0 0.0 0.00 1.18 0.01 95 1013.8
20260905113236 76 160 0.0 0.0 0.00 1.18 0.01 95 1013.8
20260905112720 77 159 0.0 0.0 0.00 1.18 0.01 95 1013.9
20260905112244 77 160 0.0 0.0 0.00 1.18 0.01 95 1013.8
20260905111727 76 160 0.0 0.0 0.00 1.18 0.01 95 1013.8
20260905111231 76 160 0.0 0.0 0.00 1.18 0.01 95 1013.7
20260905110714 76 160 0.0 0.0 0.00 1.18 0.01 95 1013.7
20260905110221 76 160 0.0 0.0 0.00 1.18 0.01 95 1013.7
20260905105725 76 160 0.0 0.0 0.00 1.18 0.01 95 1013.7
20260905105250 76 160 0.0 0.0 0.00 1.18 0.01 95 1013.7
20260905104734 76 160 0.0 0.0 0.00 1.18 0.01 95 1013.7
20260905104218 76 160 0.0 0.0 0.00 1.18 0.01 95 1013.7
20260905103719 76 160 0.0 0.0 0.00 1.18 0.01 95 1013.7
20260905103223 77 160 0.0 0.0 0.00 1.18 0.01 95 1013.6
20260905102728 76 158 0.0 0.0 0.00 1.18 0.01 95 1013.7
20260905102213 76 158 0.0 0.0 0.00 1.18 0.01 95 1013.6
20260905101717 76 158 0.0 0.0 0.00 1.18 0.01 95 1013.5
20260905101221 76 158 0.0 0.0 0.00 1.18 0.01 95 1013.5
20260905100736 76 158 0.0 0.0 0.00 1.18 0.01 95 1013.5
20260905100219 76 158 0.0 0.0 0.00 1.18 0.01 95 1013.4
20260905095717 76 158 0.0 0.0 0.00 1.18 0.01 95 1013.3
20260905095220 76 158 0.0 0.0 0.00 1.18 0.01 95 1013.3
20260905094724 76 158 0.0 0.0 0.00 1.18 0.01 95 1013.3
20260905094228 76 158 0.0 0.0 0.00 1.18 0.01 95 1013.3
20260905093732 76 158 0.0 0.0 0.00 1.18 0.01 95 1013.4
20260905093216 76 158 0.0 0.0 0.00 1.18 0.01 95 1013.3
20260905092717 76 158 0.0 0.0 0.00 1.18 0.01 95 1013.3
20260905092225 76 158 0.0 0.0 0.00 1.18 0.01 95 1013.3
20260905091729 76 158 0.0 0.0 0.00 1.18 0.01 95 1013.4
20260905091252 76 158 0.0 0.0 0.00 1.18 0.01 95 1013.4
20260905090715 76 158 0.0 0.0 0.00 1.18 0.01 95 1013.4
20260905090220 76 158 0.0 0.0 0.00 1.18 0.01 95 1013.3
20260905085724 76 158 0.0 0.0 0.00 1.18 0.01 95 1013.4
20260905085228 76 158 0.0 0.0 0.00 1.18 0.01 95 1013.5
20260905084713 76 158 0.0 0.0 0.00 1.18 0.01 95 1013.5
20260905084217 76 158 0.0 0.0 0.00 1.18 0.01 95 1013.5
20260905083741 76 158 0.0 0.0 0.00 1.18 0.01 95 1013.5
20260905083244 76 158 0.0 0.0 0.00 1.18 0.01 95 1013.4
20260905082726 76 158 0.0 0.0 0.00 1.18 0.01 95 1013.4
20260905082228 76 159 0.0 0.0 0.00 1.18 0.01 95 1013.5
20260905081716 76 159 0.0 0.0 0.00 1.18 0.01 95 1013.5
20260905081217 77 159 0.0 0.0 0.00 1.18 0.01 95 1013.4
20260905080730 76 158 0.0 0.0 0.00 1.18 0.01 95 1013.4
20260905080215 76 159 0.0 0.0 0.00 1.18 0.01 95 1013.3
20260905075716 76 159 0.0 0.0 0.00 1.18 0.01 95 1013.3
20260905075217 76 159 0.0 0.0 0.00 1.18 0.01 95 1013.2
20260905074719 76 160 0.0 0.0 0.00 1.18 0.01 95 1013.2
20260905074223 76 159 0.0 0.0 0.00 1.18 0.01 95 1013.2
20260905073217 76 159 0.0 0.0 0.00 1.18 0.01 95 1013.1
20260905072730 76 159 0.0 0.0 0.00 1.18 0.01 95 1013.2
20260905072213 76 159 0.0 0.0 0.00 1.18 0.01 95 1013.2
20260905071717 76 158 0.0 0.0 0.00 1.18 0.01 95 1013.3
20260905071242 76 161 0.0 0.0 0.00 1.18 0.01 95 1013.3
20260905070725 76 161 0.0 0.0 0.00 1.18 0.01 95 1013.4
20260905070249 76 161 0.0 0.0 0.00 1.18 0.01 95 1013.5
20260905065732 76 161 0.0 0.0 0.00 1.18 0.01 95 1013.5
20260905065217 76 161 0.0 0.0 0.00 1.18 0.01 95 1013.4
20260905064725 76 163 0.0 0.0 0.00 1.18 0.01 95 1013.5
20260905064228 76 163 0.0 0.0 0.00 1.18 0.01 95 1013.6
20260905063729 76 162 0.0 0.0 0.00 1.18 0.01 95 1013.7
20260905063230 76 162 0.0 0.0 0.00 1.18 0.01 95 1013.8
20260905062714 76 163 0.0 0.0 0.00 1.18 0.01 95 1013.9
20260905062216 76 163 0.0 0.0 0.00 1.18 0.01 95 1013.9
20260905061719 76 162 0.0 0.0 0.00 1.18 0.01 95 1014.0
20260905061223 76 163 0.0 0.0 0.00 1.18 0.01 95 1014.0
20260905060717 76 163 0.0 0.0 0.00 1.18 0.01 95 1014.2
20260905060240 76 163 0.0 0.0 0.00 1.18 0.01 95 1014.3
20260905055723 76 162 0.0 0.0 0.00 1.18 0.01 95 1014.2
20260905055246 76 150 0.0 0.0 0.00 1.18 0.01 95 1014.3
20260905054749 76 149 0.0 0.0 0.00 1.18 0.01 95 1014.4
20260905054231 76 127 0.0 0.0 0.00 1.18 0.01 95 1014.5
20260905053719 76 146 0.0 0.0 0.00 1.18 0.01 95 1014.6
20260905053224 76 147 0.0 0.0 0.00 1.18 0.01 95 1014.6
20260905052748 76 148 0.0 0.0 0.00 1.18 0.01 95 1014.6
20260905052227 76 141 0.0 0.0 0.00 1.18 0.01 95 1014.7
20260905051751 76 140 0.0 0.0 0.00 1.18 0.01 95 1014.7
20260905051231 76 191 0.0 0.0 0.01 1.18 0.01 95 1014.7
20260905050716 76 138 0.0 0.0 0.01 1.18 0.01 95 1014.8
20260905050241 76 201 0.0 0.0 0.01 1.18 0.01 95 1014.8
20260905045723 76 201 0.0 0.0 0.01 1.18 0.01 95 1014.8
20260905045248 76 201 0.0 0.0 0.01 1.18 0.01 95 1014.8
20260905044730 76 201 0.0 0.0 0.01 1.18 0.01 95 1014.9
20260905044213 76 201 0.0 0.0 0.01 1.18 0.01 95 1014.9
20260905043737 76 203 0.0 0.0 0.01 1.18 0.01 95 1014.9
20260905043239 76 202 0.0 0.0 0.02 1.18 0.01 95 1014.9
20260905042741 76 202 0.0 0.0 0.02 1.18 0.01 95 1014.9
20260905042244 76 204 0.0 0.0 0.02 1.18 0.01 95 1014.9
20260905041727 76 205 0.0 0.0 0.02 1.18 0.01 95 1014.9
20260905041231 76 206 0.0 0.0 0.01 1.17 0.00 95 1014.9
20260905040743 76 192 0.0 0.0 0.02 1.17 0.00 95 1014.9
20260905040224 76 191 0.0 0.0 0.02 1.17 0.00 95 1015.0
20260905035745 76 191 0.0 0.0 0.02 1.17 1.17 95 1015.0
20260905035248 76 205 0.0 0.0 0.02 1.17 1.17 95 1015.1
20260905034712 76 189 0.0 0.0 0.02 1.17 1.17 95 1015.2
20260905034217 76 189 0.0 0.0 0.03 1.17 1.17 95 1015.2
20260905033719 76 190 0.0 0.0 0.03 1.17 1.17 95 1015.2
20260905033222 76 190 0.0 0.0 0.02 1.16 1.16 95 1015.3
20260905032727 76 190 0.0 0.0 0.02 1.16 1.16 95 1015.2
20260905032231 76 190 0.0 0.0 0.02 1.16 1.16 95 1015.2
20260905031715 76 190 0.0 0.0 0.02 1.16 1.16 95 1015.2
20260905031238 76 189 0.0 0.0 0.02 1.16 1.16 95 1015.2
20260905030719 76 189 0.0 0.0 0.01 1.15 1.15 95 1015.2
20260905030223 76 193 0.0 0.0 0.01 1.15 1.15 95 1015.2
20260905025746 76 189 0.0 0.0 0.01 1.15 1.15 95 1015.3
20260905025227 76 191 0.0 0.0 0.01 1.15 1.15 95 1015.3
20260905024731 76 191 0.0 0.0 0.01 1.15 1.15 95 1015.4
20260905024219 76 177 0.0 0.0 0.00 1.14 1.14 95 1015.4
20260905023743 76 187 0.0 0.0 0.00 1.14 1.14 95 1015.5
20260905023226 76 187 0.0 0.0 0.00 1.14 1.14 95 1015.4
20260905022730 76 187 0.0 0.0 0.00 1.14 1.14 95 1015.4
20260905022215 76 94 0.0 0.0 0.00 1.14 1.14 95 1015.4
20260905021719 75 99 0.0 0.0 0.00 1.14 1.14 94 1015.3
20260905021223 76 106 0.0 0.0 0.00 1.14 1.14 95 1015.4
20260905020718 76 104 0.0 0.0 0.01 1.14 1.14 95 1015.4
20260905020221 75 120 0.0 0.0 0.01 1.14 1.14 95 1015.4
20260905015722 76 120 0.0 0.0 0.01 1.14 1.14 95 1015.4
20260905015248 75 176 0.0 1.0 0.02 1.14 1.14 95 1015.3
20260905014731 75 117 0.0 1.0 0.02 1.14 1.14 95 1015.2
20260905014232 75 151 0.0 1.0 0.04 1.14 1.14 95 1015.1
20260905013719 75 130 0.0 2.0 0.05 1.14 1.14 95 1015.0
20260905013222 75 158 1.0 2.0 0.06 1.14 1.14 94 1014.9
20260905012726 75 99 0.0 2.0 0.07 1.14 1.14 94 1014.8
20260905011720 75 118 1.0 3.0 0.08 1.14 1.14 94 1014.8
20260905011303 75 121 0.0 3.0 0.07 1.13 1.13 94 1014.8
20260905010748 75 90 1.0 4.0 0.08 1.13 1.13 94 1014.8
20260905010214 75 108 1.0 6.0 0.08 1.13 1.13 94 1014.8
20260905005737 75 85 3.0 6.0 0.08 1.13 1.13 94 1014.8
20260905005218 75 145 1.0 7.0 0.08 1.12 1.12 94 1014.9
20260905004721 75 70 4.0 6.0 0.07 1.11 1.11 94 1015.0
20260905004244 75 123 1.0 5.0 0.06 1.10 1.10 94 1015.1
20260905003729 75 132 3.0 6.0 0.05 1.09 1.09 94 1015.2
20260905003232 75 92 3.0 8.0 0.04 1.08 1.08 94 1015.3
20260905002716 75 78 4.0 8.0 0.03 1.07 1.07 94 1015.3